Weather History for KFOA - June, 2013

Change the Weather History Date:

Monday, June 24, 2013

  Actual Average (KEVV) Record (KEVV)
Temperature  
Mean Temperature 76 °F 77 °F  
Max Temperature 85 °F 88 °F 100 °F (1914)
Min Temperature 67 °F 66 °F 49 °F (1972)
Degree Days  
Heating Degree Days 0 0  
Month to date heating degree days 4  
Since 1 June heating degree days 4  
Since 1 July heating degree days 4545  
Cooling Degree Days 10 12  
Month to date cooling degree days 224  
Year to date cooling degree days 359  
Since 1 June cooling degree days 224  
Growing Degree Days 26 (Base 50)    
Moisture  
Dew Point 69 °F    
Average Humidity 85    
Maximum Humidity 97    
Minimum Humidity 70    
Precipitation  
Precipitation 0.02 in 0.11 in 4.10 in (2013)
Month to date precipitation 3.12  
Year to date precipitation 23.36  
Snow  
Snow 0.00 in 0.00 in - ()
Month to date snowfall 0.0  
Since 1 June snowfall 0.0  
Since 1 July snowfall 11.8  
Snow Depth -    
Sea Level Pressure  
Sea Level Pressure 30.07 in    
Wind  
Wind Speed 6 mph (SSE)    
Max Wind Speed 17 mph    
Max Gust Speed 23 mph    
Visibility 10 miles    
Events Rain , Thunderstorm    
T = Trace of Precipitation, MM = Missing Value Source: NWS Daily Summary

Daily Weather History Graph

Daily Weather History Graph

Search for Another Location

Airport or City:

Trip Planner

Search our weather history database for the weather conditions in past years. The results will help you decide how hot, cold, wet, or windy it might be!

Date:

Astronomy

Jun. 24, 2013 Rise Set
Actual Time 5:30 AM CDT 8:22 PM CDT
Civil Twilight 4:58 AM CDT 8:54 PM CDT
Nautical Twilight 4:18 AM CDT 9:34 PM CDT
Astronomical Twilight 3:32 AM CDT 10:20 PM CDT
Moon 9:26 PM CDT (6/24) 6:56 AM CDT (6/24)
Length of Visible Light 15h 55m
Length of Day
14h 52m
Full, 98% of the Moon is Illuminated
Jun 24
Full
Jun 29
Last Quarter
Jul 8
New
Jul 15
First Quarter
Jul 22
Full

Hourly Weather History & Observations

Time (CDT) Temp. Heat Index Dew Point Humidity Pressure Visibility Wind Dir Wind Speed Gust Speed Precip Events Conditions
12:15 AM 67.6 °F - 66.2 °F 95% 30.08 in 10.0 mi WSW 4.6 mph - N/A Rain Light Rain
12:35 AM 67.6 °F - 66.2 °F 95% 30.09 in 10.0 mi WSW 4.6 mph - N/A   Clear
12:55 AM 67.5 °F - 66.2 °F 96% 30.09 in 10.0 mi South 3.5 mph - N/A   Clear
1:15 AM 67.3 °F - 66.2 °F 96% 30.09 in 10.0 mi Calm Calm - N/A Rain Light Rain
1:35 AM 67.5 °F - 66.4 °F 96% 30.08 in 10.0 mi Calm Calm - N/A   Clear
1:55 AM 67.3 °F - 66.4 °F 97% 30.08 in 10.0 mi NW 4.6 mph - 0.01 in Rain Light Rain
2:15 AM 67.1 °F - 66.2 °F 97% 30.07 in 10.0 mi South 4.6 mph - N/A Rain Rain
2:35 AM 67.3 °F - 66.2 °F 96% 30.08 in 10.0 mi WNW 3.5 mph - N/A   Light Drizzle
2:55 AM 67.5 °F - 66.2 °F 96% 30.07 in 10.0 mi Calm Calm - N/A   Clear
3:15 AM 67.3 °F - 66.0 °F 96% 30.07 in 10.0 mi Calm Calm - N/A   Clear
3:35 AM 67.1 °F - 66.2 °F 97% 30.06 in 10.0 mi East 4.6 mph - N/A   Clear
3:55 AM 67.1 °F - 66.2 °F 97% 30.05 in 7.0 mi ESE 3.5 mph - N/A   Clear
4:15 AM 67.1 °F - 66.2 °F 97% 30.06 in 7.0 mi Calm Calm - N/A   Clear
4:35 AM 67.1 °F - 66.2 °F 97% 30.06 in 7.0 mi SE 5.8 mph - N/A   Clear
4:55 AM 67.1 °F - 66.2 °F 97% 30.07 in 10.0 mi SSE 5.8 mph - N/A   Clear
5:15 AM 67.1 °F - 66.2 °F 97% 30.07 in 10.0 mi SSE 4.6 mph - N/A   Clear
5:35 AM 67.1 °F - 66.2 °F 97% 30.08 in 7.0 mi South 3.5 mph - N/A   Clear
5:55 AM 67.3 °F - 66.4 °F 97% 30.09 in 7.0 mi SSE 3.5 mph - N/A   Scattered Clouds
6:15 AM 67.6 °F - 66.7 °F 97% 30.09 in 7.0 mi SE 4.6 mph - N/A   Clear
6:35 AM 68.0 °F - 67.1 °F 97% 30.10 in 7.0 mi SE 4.6 mph - N/A   Clear
6:55 AM 68.0 °F - 67.1 °F 97% 30.10 in 7.0 mi SSE 3.5 mph - N/A   Unknown
7:15 AM 68.4 °F - 67.5 °F 97% 30.10 in 7.0 mi SSE 3.5 mph - N/A   Unknown
7:35 AM 68.9 °F - 67.5 °F 95% 30.11 in 7.0 mi SSE 4.6 mph - N/A   Unknown
7:55 AM 68.9 °F - 67.5 °F 95% 30.12 in 10.0 mi SSE 4.6 mph - N/A   Unknown
8:15 AM 68.9 °F - 67.5 °F 95% 30.12 in 7.0 mi SSE 5.8 mph - 0.01 in   Drizzle
8:35 AM 69.8 °F - 68.2 °F 95% 30.13 in 10.0 mi SE 4.6 mph - 0.01 in   Light Drizzle
8:55 AM 69.8 °F - 68.4 °F 95% 30.13 in 10.0 mi SSE 4.6 mph - 0.01 in Rain Light Rain
9:15 AM 70.7 °F - 68.9 °F 94% 30.12 in 10.0 mi South 6.9 mph - N/A Rain Light Rain
9:35 AM 72.1 °F - 69.6 °F 92% 30.12 in 10.0 mi SSE 6.9 mph - N/A   Clear
9:55 AM 74.8 °F - 70.7 °F 87% 30.12 in 10.0 mi South 10.4 mph - N/A   Clear
10:15 AM 76.3 °F - 71.4 °F 85% 30.12 in 10.0 mi South 9.2 mph - N/A   Clear
10:35 AM 77.2 °F - 71.8 °F 83% 30.12 in 10.0 mi South 11.5 mph - N/A   Clear
10:55 AM 77.9 °F - 70.7 °F 78% 30.12 in 10.0 mi SSW 13.8 mph - N/A   Clear
11:15 AM 79.2 °F - 71.4 °F 77% 30.12 in 10.0 mi SSW 10.4 mph - N/A   Clear
11:35 AM 79.9 °F - 71.8 °F 76% 30.11 in 10.0 mi SW 8.1 mph - N/A Thunderstorm Clear
11:55 AM 81.0 °F 85.2 °F 72.0 °F 74% 30.10 in 10.0 mi SSW 8.1 mph - N/A   Clear
12:15 PM 81.7 °F 86.9 °F 73.0 °F 75% 30.10 in 10.0 mi South 8.1 mph - N/A   Clear
12:35 PM 82.8 °F 88.2 °F 72.7 °F 71% 30.10 in 10.0 mi South 8.1 mph - N/A   Clear
12:55 PM 83.5 °F 89.7 °F 73.2 °F 71% 30.09 in 10.0 mi SSE 6.9 mph - N/A   Clear
1:15 PM 83.8 °F 90.8 °F 73.9 °F 72% 30.08 in 10.0 mi South 6.9 mph - N/A   Clear
1:35 PM 84.6 °F 91.7 °F 73.8 °F 70% 30.07 in 10.0 mi South 6.9 mph - N/A   Clear
1:55 PM 84.2 °F 91.9 °F 74.8 °F 73% 30.07 in 10.0 mi SSE 11.5 mph - N/A   Clear
2:15 PM 81.3 °F 86.3 °F 73.2 °F 76% 30.07 in 10.0 mi SE 17.3 mph 23.0 mph N/A   Clear
2:35 PM 80.2 °F 84.3 °F 72.5 °F 77% 30.07 in 10.0 mi SE 16.1 mph - N/A   Clear
3:13 PM 80.6 °F 85.4 °F 73.4 °F 79% 30.06 in 10.0 mi SSE 13.8 mph 23.0 mph N/A   Unknown
3:33 PM 80.6 °F 84.6 °F 71.6 °F 74% 30.06 in 10.0 mi SSE 13.8 mph - N/A   Unknown
3:53 PM 82.4 °F 87.2 °F 71.6 °F 70% 30.05 in 10.0 mi SSE 13.8 mph - N/A   Unknown
3:55 PM 81.7 °F 86.5 °F 72.3 °F 73% 30.05 in 10.0 mi SSE 15.0 mph - N/A   Clear
4:33 PM 82.4 °F 87.2 °F 71.6 °F 70% 30.04 in 10.0 mi South 13.8 mph - N/A   Clear
4:35 PM 82.0 °F 87.0 °F 72.1 °F 72% 30.04 in 10.0 mi South 15.0 mph - N/A   Clear
5:13 PM 82.4 °F 87.2 °F 71.6 °F 70% 30.04 in 10.0 mi South 11.5 mph - N/A   Clear
5:33 PM 82.4 °F 87.2 °F 71.6 °F 70% 30.04 in 10.0 mi South 11.5 mph - N/A   Clear
5:53 PM 82.4 °F 87.2 °F 71.6 °F 70% 30.04 in 10.0 mi South 11.5 mph - N/A   Clear
6:13 PM 80.6 °F 84.6 °F 71.6 °F 74% 30.03 in 10.0 mi South 13.8 mph - N/A   Clear
6:33 PM 80.6 °F 84.6 °F 71.6 °F 74% 30.03 in 10.0 mi South 11.5 mph - N/A   Clear
6:53 PM 80.6 °F 84.6 °F 71.6 °F 74% 30.03 in 10.0 mi South 10.4 mph - N/A   Clear
7:13 PM 80.6 °F 83.9 °F 69.8 °F 70% 30.03 in 10.0 mi South 9.2 mph - N/A   Clear
7:33 PM 78.8 °F - 71.6 °F 78% 30.04 in 10.0 mi South 5.8 mph - N/A   Clear
7:55 PM 78.8 °F - 71.6 °F 78% 30.02 in 10.0 mi SSE 8.1 mph - N/A   Clear
8:13 PM 78.8 °F - 69.8 °F 74% 30.02 in 10.0 mi South 9.2 mph - N/A   Clear
8:33 PM 77.0 °F - 69.8 °F 78% 30.02 in 10.0 mi SSE 5.8 mph - N/A   Clear
8:56 PM 75.2 °F - 69.8 °F 83% 30.02 in 10.0 mi SSE 6.9 mph - N/A   Clear
9:13 PM 75.2 °F - 69.8 °F 83% 30.02 in 10.0 mi SSE 6.9 mph - N/A   Clear
9:35 PM 74.7 °F - 68.9 °F 82% 30.02 in 10.0 mi SSE 6.9 mph - N/A   Clear
9:55 PM 73.9 °F - 68.9 °F 84% 30.03 in 10.0 mi SSE 4.6 mph - N/A   Clear
10:15 PM 73.4 °F - 68.5 °F 85% 30.03 in 10.0 mi SSE 5.8 mph - N/A   Clear
10:35 PM 73.0 °F - 68.2 °F 85% 30.03 in 10.0 mi SSE 8.1 mph - N/A   Clear
10:55 PM 72.7 °F - 68.0 °F 85% 30.01 in 10.0 mi SSE 10.4 mph - N/A   Clear
11:15 PM 73.4 °F - 67.3 °F 81% 30.01 in 10.0 mi SSE 11.5 mph - N/A   Clear
11:35 PM 73.0 °F - 67.3 °F 82% 30.01 in 10.0 mi South 10.4 mph - N/A   Clear
11:55 PM 73.0 °F - 67.5 °F 83% 30.01 in 10.0 mi South 10.4 mph - N/A   Clear